Starlink 35690

operational
NORAD ID: 66383 Int'l Des: 2025-257 Owner: SPXS Country: US Constellation: starlink
LEOCIRCULAR

About Starlink 35690

Description loading...

Live Position

Loading 3D Globe...

Upcoming Passes

Altitude History

Altitude vs Time

uPlot chart will show altitude changes over time

Two-Line Element Set

1 66383U 25257D 25341.00002315 .00019992 00000-0 50903-3 0 9993
2 66383 53.1612 291.5960 0001301 95.4966 326.7229 15.39586671 5571
Epoch: Dec 7, 2025 • Age: 13 hours

Current Status

Altitude 449.0 km
Velocity 7.65 km/s
Sub-Earth Point 34.32°N, 170.26°E
Launch Date Nov 9, 2025
Age 28 days
Type internet

Technical Details

Classification Payload
Mass 575.00 kg
Dry Mass 530.00 kg
Total Mass 575.00 kg
Length 0.30 m
Diameter 4.10 m
Span 29.00 m
Shape Box + pan
Manufacturer SPXS
Bus Type Starlink V2MO
Phase Status In Orbit
Owner/State SPXS/US

Large Constellations

Loading constellations...